Location: Arbon
(43.0005°N, 0.7472°E)
Time: 09:46:45
(UTC+00:00)

SR - Pass Details

Date: 29 November 2020
Orbit: 575 x 880 km, 66.7° (Epoch: 21 January)

Event Time Altitude Azimuth Distance (km) Brightness Sun altitude
Rises 05:00:39 0° 306° (NW) 3,276 - -22.5°
Reaches altitude 10° 05:05:09 10° 271° (W) 2,416 - -21.7°
Maximum altitude 05:06:29 11° 257° (WSW) 2,373 - -21.4°
Drops below altitude 10° 05:07:50 10° 243° (WSW) 2,450 - -21.2°
Exits shadow 05:11:38 - 214° (SSW) 3,179 ? -20.5°
Sets 05:12:33 0° 209° (SSW) 3,431 ? -20.3°
